Tracking 19212 objects as of 16-Jul-2018
HD Live streaming from Space Station
objects crossing your sky now

ARIANE 5 R/B

Track ARIANE 5 R/B now!


NORAD ID: 42742
Int'l Code: 2017-029C
Perigee: 311.5 km
Apogee: 35,654.9 km
Inclination: 5.9 °
Period: 630.4 minutes
Semi major axis: 24354 km
RCS: Unknown
Launch date: June 1, 2017
Source: France (FR)
Launch site: FRENCH GUIANA (FRGUI)

Note: This is a ROCKET BODY
aabbcc
Your satellite tracking list
Your tracking list is empty




NASA's NSSDC Master Catalog

Two Line Element Set (TLE):
1 42742U 17029C   18196.42271447  .00000104  00000-0  14515-3 0  9998
2 42742   5.8962 270.5139 7256116 145.8061 295.9790  2.28423740  9339
Source of the keplerian elements: AFSPC